Location: Fort Wayne
(41.1310°N, 85.1290°W)
Time: 15:38:26
(UTC-04:00)

SR - Visible Passes

Search period start: 25 October 2014 00:00
Search period end: 03 November 2014 23:00
Orbit: 576 x 888 km, 66.7° (Epoch: 24 October)

Date Brightness Start Highest point End Pass type
(mag) Time Alt. Az. Time Alt. Az. Time Alt. Az.
29 Oct ? 21:34:05 10° N 21:34:12 10° N 21:34:12 10° N visible
30 Oct ? 20:46:54 10° NNE 20:47:09 10° NNE 20:47:09 10° NNE visible
31 Oct ? 21:39:01 10° NNW 21:39:37 13° N 21:39:37 13° N visible
01 Nov ? 20:51:12 10° N 20:52:37 15° N 20:52:37 15° N visible
02 Nov ? 19:04:00 10° NNE 19:05:40 12° NNE 19:05:40 12° NNE visible
02 Nov ? 20:44:13 10° NNW 20:45:10 15° NNW 20:45:10 15° NNW visible
03 Nov ? 19:56:06 10° NNW 19:58:16 21° N 19:58:16 21° N visible
